When you browse on this site, cookies collect data to enhance your experience and personalize the content and advertising you see.
Visit our Privacy Policy to learn more. By continuing to use the site, you agree to this use of cookies and data.
  • în România
  • Lista ţărilor
  • Pe 7 zile
  • Temperatura apei
  • Hartă satelitară
  • Meteo pe hartă
  • Widget-uri
  • user-avatar
    Intrare

    Meteo pe oră la Malakoff

    Astăzi, 16 Iunie, Duminică

    Timp Temperatura Precipitaţii Vânt Presiune Umiditate
    00:00 +14°C° 0 mm 4 m/s 758 mmHg 81%
    01:00 +13°C° 0 mm 4 m/s 758 mmHg 82%
    02:00 +13°C° 0 mm 3 m/s 758 mmHg 84%
    03:00 +13°C° 0 mm 3 m/s 758 mmHg 86%
    04:00 +13°C° 0 mm 3 m/s 758 mmHg 85%
    05:00 +13°C° 0 mm 3 m/s 759 mmHg 84%
    06:00 +13°C° 0 mm 3 m/s 759 mmHg 83%
    07:00 +14°C° 0 mm 3 m/s 759 mmHg 79%
    08:00 +16°C° 0 mm 3 m/s 759 mmHg 75%
    09:00 +17°C° 0 mm 3 m/s 760 mmHg 71%
    10:00 +19°C° 0 mm 3 m/s 760 mmHg 66%
    11:00 +20°C° 0 mm 3 m/s 760 mmHg 61%
    12:00 +22°C° 0 mm 3 m/s 760 mmHg 56%
    13:00 +22°C° 0.1 mm 3 m/s 759 mmHg 56%
    14:00 +22°C° 0.1 mm 3 m/s 759 mmHg 56%
    15:00 +22°C° 0.1 mm 3 m/s 759 mmHg 56%
    16:00 +22°C° 0 mm 3 m/s 759 mmHg 58%
    17:00 +22°C° 0 mm 3 m/s 759 mmHg 60%
    18:00 +23°C° 0 mm 2 m/s 759 mmHg 62%
    19:00 +21°C° 0 mm 2 m/s 759 mmHg 66%
    20:00 +19°C° 0 mm 2 m/s 759 mmHg 71%
    21:00 +19°C° 0 mm 1 m/s 759 mmHg 75%
    22:00 +19°C° 0 mm 1 m/s 759 mmHg 77%
    23:00 +18°C° 0 mm 1 m/s 759 mmHg 78%

    Mâine, 17 Iunie, Luni

    Timp Temperatura Precipitaţii Vânt Presiune Umiditate
    00:00 +16°C° 0 mm 1 m/s 759 mmHg 80%
    01:00 +16°C° 0 mm 1 m/s 759 mmHg 80%
    02:00 +15°C° 0 mm 0 m/s 759 mmHg 81%
    03:00 +14°C° 0 mm 0 m/s 758 mmHg 82%
    04:00 +15°C° 0 mm 0 m/s 758 mmHg 80%
    05:00 +16°C° 0 mm 0 m/s 759 mmHg 78%
    06:00 +16°C° 0 mm 0 m/s 759 mmHg 76%
    07:00 +18°C° 0 mm 0 m/s 759 mmHg 69%
    08:00 +20°C° 0 mm 0 m/s 759 mmHg 62%
    09:00 +22°C° 0 mm 0 m/s 759 mmHg 56%
    10:00 +23°C° 0 mm 0 m/s 758 mmHg 50%
    11:00 +24°C° 0 mm 0 m/s 758 mmHg 45%
    12:00 +26°C° 0 mm 0 m/s 758 mmHg 39%
    13:00 +28°C° 0 mm 1 m/s 758 mmHg 39%
    14:00 +28°C° 0 mm 1 m/s 757 mmHg 39%
    15:00 +28°C° 0 mm 2 m/s 757 mmHg 39%
    16:00 +27°C° 0 mm 2 m/s 757 mmHg 44%
    17:00 +26°C° 0 mm 2 m/s 756 mmHg 49%
    18:00 +26°C° 0 mm 2 m/s 756 mmHg 54%
    19:00 +24°C° 0 mm 2 m/s 756 mmHg 59%
    20:00 +23°C° 0 mm 1 m/s 756 mmHg 64%
    21:00 +22°C° 0 mm 1 m/s 757 mmHg 68%
    22:00 +21°C° 0 mm 1 m/s 756 mmHg 72%
    23:00 +20°C° 0 mm 1 m/s 756 mmHg 75%

    Poimâine, 18 Iunie, Marţi

    Timp Temperatura Precipitaţii Vânt Presiune Umiditate
    00:00 +20°C° 0 mm 1 m/s 756 mmHg 78%
    01:00 +19°C° 0 mm 1 m/s 756 mmHg 79%
    02:00 +19°C° 0 mm 1 m/s 756 mmHg 80%
    03:00 +18°C° 0 mm 1 m/s 755 mmHg 82%
    04:00 +19°C° 0 mm 1 m/s 755 mmHg 80%
    05:00 +19°C° 0 mm 1 m/s 755 mmHg 78%
    06:00 +19°C° 0 mm 2 m/s 755 mmHg 77%
    07:00 +20°C° 0 mm 2 m/s 755 mmHg 71%
    08:00 +23°C° 0 mm 2 m/s 755 mmHg 65%
    09:00 +24°C° 0 mm 2 m/s 755 mmHg 59%
    10:00 +25°C° 0 mm 2 m/s 754 mmHg 54%
    11:00 +27°C° 0 mm 2 m/s 754 mmHg 50%
    12:00 +28°C° 0 mm 2 m/s 754 mmHg 45%
    13:00 +28°C° 0 mm 2 m/s 753 mmHg 45%
    14:00 +28°C° 0 mm 2 m/s 753 mmHg 45%
    15:00 +29°C° 0 mm 2 m/s 753 mmHg 45%
    16:00 +28°C° 0.1 mm 2 m/s 752 mmHg 48%
    17:00 +27°C° 0.1 mm 2 m/s 752 mmHg 52%
    18:00 +26°C° 0.1 mm 2 m/s 752 mmHg 55%
    19:00 +25°C° 0 mm 2 m/s 752 mmHg 58%
    20:00 +24°C° 0 mm 2 m/s 752 mmHg 61%
    21:00 +23°C° 0 mm 1 m/s 752 mmHg 64%
    22:00 +23°C° 0 mm 2 m/s 752 mmHg 66%
    23:00 +21°C° 0 mm 2 m/s 751 mmHg 68%

    19 Iunie, Miercuri

    Timp Temperatura Precipitaţii Vânt Presiune Umiditate
    00:00 +21°C° 0 mm 2 m/s 751 mmHg 70%
    01:00 +20°C° 0.1 mm 2 m/s 750 mmHg 72%
    02:00 +20°C° 0.1 mm 2 m/s 750 mmHg 74%
    03:00 +20°C° 0.1 mm 2 m/s 749 mmHg 76%
    04:00 +20°C° 0.3 mm 3 m/s 749 mmHg 75%
    05:00 +20°C° 0.3 mm 3 m/s 749 mmHg 75%
    06:00 +20°C° 0.3 mm 3 m/s 749 mmHg 75%
    07:00 +22°C° 0.7 mm 3 m/s 749 mmHg 69%
    08:00 +24°C° 0.7 mm 3 m/s 749 mmHg 63%
    09:00 +25°C° 0.7 mm 3 m/s 750 mmHg 57%
    10:00 +26°C° 0 mm 4 m/s 750 mmHg 56%
    11:00 +27°C° 0 mm 5 m/s 750 mmHg 54%
    12:00 +28°C° 0 mm 5 m/s 750 mmHg 53%
    13:00 +28°C° 0.2 mm 6 m/s 750 mmHg 52%
    14:00 +27°C° 0.2 mm 6 m/s 750 mmHg 52%
    15:00 +27°C° 0.2 mm 7 m/s 751 mmHg 51%
    16:00 +26°C° 0.1 mm 6 m/s 751 mmHg 54%
    17:00 +24°C° 0.1 mm 6 m/s 751 mmHg 58%
    18:00 +23°C° 0.1 mm 5 m/s 751 mmHg 61%
    19:00 +22°C° 0 mm 5 m/s 751 mmHg 64%
    20:00 +21°C° 0 mm 5 m/s 752 mmHg 68%
    21:00 +20°C° 0 mm 4 m/s 752 mmHg 72%
    22:00 +19°C° 0 mm 4 m/s 752 mmHg 76%
    23:00 +18°C° 0 mm 4 m/s 752 mmHg 79%

    20 Iunie, Joi

    Timp Temperatura Precipitaţii Vânt Presiune Umiditate
    00:00 +17°C° 0 mm 4 m/s 752 mmHg 82%
    01:00 +17°C° 0 mm 3 m/s 753 mmHg 82%
    02:00 +17°C° 0 mm 3 m/s 753 mmHg 82%
    03:00 +16°C° 0 mm 3 m/s 753 mmHg 82%
    04:00 +16°C° 0 mm 2 m/s 754 mmHg 81%
    05:00 +16°C° 0 mm 2 m/s 754 mmHg 80%
    06:00 +16°C° 0 mm 2 m/s 754 mmHg 79%
    07:00 +17°C° 0 mm 2 m/s 754 mmHg 74%
    08:00 +18°C° 0 mm 2 m/s 755 mmHg 69%
    09:00 +19°C° 0 mm 2 m/s 755 mmHg 64%
    10:00 +20°C° 0 mm 2 m/s 755 mmHg 60%
    11:00 +21°C° 0 mm 2 m/s 755 mmHg 55%
    12:00 +23°C° 0 mm 2 m/s 755 mmHg 51%
    13:00 +23°C° 0.1 mm 2 m/s 755 mmHg 53%
    14:00 +23°C° 0.1 mm 2 m/s 755 mmHg 56%
    15:00 +23°C° 0.1 mm 2 m/s 755 mmHg 58%
    16:00 +21°C° 0.2 mm 2 m/s 755 mmHg 60%
    17:00 +21°C° 0.2 mm 2 m/s 755 mmHg 61%
    18:00 +20°C° 0.2 mm 2 m/s 755 mmHg 63%
    19:00 +19°C° 0 mm 2 m/s 755 mmHg 64%
    20:00 +19°C° 0 mm 2 m/s 755 mmHg 65%
    21:00 +18°C° 0 mm 2 m/s 756 mmHg 65%
    22:00 +17°C° 0 mm 2 m/s 756 mmHg 69%
    23:00 +16°C° 0 mm 2 m/s 756 mmHg 73%

    21 Iunie, Vineri

    Timp Temperatura Precipitaţii Vânt Presiune Umiditate
    00:00 +16°C° 0 mm 2 m/s 756 mmHg 76%
    01:00 +15°C° 0 mm 2 m/s 756 mmHg 76%
    02:00 +15°C° 0 mm 2 m/s 756 mmHg 75%
    03:00 +14°C° 0 mm 2 m/s 756 mmHg 75%
    04:00 +14°C° 0 mm 2 m/s 756 mmHg 73%
    05:00 +15°C° 0 mm 2 m/s 756 mmHg 71%
    06:00 +15°C° 0 mm 2 m/s 757 mmHg 70%
    07:00 +16°C° 0 mm 2 m/s 757 mmHg 62%
    08:00 +18°C° 0 mm 2 m/s 757 mmHg 55%
    09:00 +19°C° 0 mm 2 m/s 757 mmHg 48%
    10:00 +20°C° 0 mm 2 m/s 757 mmHg 46%
    11:00 +21°C° 0 mm 2 m/s 757 mmHg 44%
    12:00 +23°C° 0 mm 2 m/s 757 mmHg 42%
    13:00 +23°C° 0 mm 2 m/s 757 mmHg 43%
    14:00 +22°C° 0 mm 3 m/s 757 mmHg 43%
    15:00 +22°C° 0 mm 3 m/s 757 mmHg 44%
    16:00 +21°C° 0 mm 3 m/s 757 mmHg 47%
    17:00 +21°C° 0 mm 3 m/s 757 mmHg 50%
    18:00 +21°C° 0 mm 3 m/s 757 mmHg 53%
    19:00 +19°C° 0 mm 3 m/s 757 mmHg 58%
    20:00 +18°C° 0 mm 2 m/s 758 mmHg 63%
    21:00 +17°C° 0 mm 2 m/s 758 mmHg 67%
    22:00 +16°C° 0 mm 2 m/s 758 mmHg 68%
    23:00 +15°C° 0 mm 2 m/s 758 mmHg 69%
    Arată mai mult